This is the latest recevied weather packets stored in our database for station/object K5FEP. If no packets are shown the sender has not sent any weather packets the latest 10 day(s).
| Time | Temp. | Humidity | Pressure | Rain* | Wind** | Luminosity | Snow |
|---|---|---|---|---|---|---|---|
| 1788398083 | 28.33° C | 68% | 1016.7 hPa | 0 mm | - | 0 W/m² | - |
| 1788397778 | 28.33° C | 67% | 1016.7 hPa | 0 mm | - | 0 W/m² | - |
| 1788397473 | 28.89° C | 67% | 1016.7 hPa | 0 mm | - | 0 W/m² | - |
| 1788397171 | 28.89° C | 66% | 1016.5 hPa | 0 mm | - | 0 W/m² | - |
| 1788396867 | 28.89° C | 65% | 1016.3 hPa | 0 mm | - | 0 W/m² | - |
| 1788396564 | 29.44° C | 64% | 1016.3 hPa | 0 mm | - | 0 W/m² | - |
| 1788396264 | 29.44° C | 65% | 1016.4 hPa | 0 mm | - | 0 W/m² | - |
| 1788395960 | 28.89° C | 65% | 1016.2 hPa | 0 mm | - | 0 W/m² | - |
| 1788395659 | 29.44° C | 65% | 1016.2 hPa | 0 mm | - | 0 W/m² | - |
| 1788395360 | 29.44° C | 64% | 1016.2 hPa | 0 mm | - | 0 W/m² | - |
| 1788395055 | 29.44° C | 64% | 1016 hPa | 0 mm | - | 0 W/m² | - |
| 1788394754 | 30° C | 62% | 1015.9 hPa | 0 mm | - | 0 W/m² | - |
| 1788394449 | 30° C | 61% | 1016 hPa | 0 mm | - | 0 W/m² | - |
| 1788394149 | 30° C | 61% | 1016.1 hPa | 0 mm | - | 0 W/m² | - |
| 1788393844 | 30° C | 61% | 1015.7 hPa | 0 mm | - | 0 W/m² | - |
| 1788393542 | 30.56° C | 60% | 1015.7 hPa | 0 mm | - | 0 W/m² | - |
| 1788393238 | 30.56° C | 59% | 1015.8 hPa | 0 mm | - | 1 W/m² | - |
| 1788392937 | 31.11° C | 58% | 1016 hPa | 0 mm | - | 2 W/m² | - |
| 1788392638 | 31.11° C | 57% | 1016 hPa | 0 mm | - | 4 W/m² | - |
| 1788392336 | 31.67° C | 56% | 1016 hPa | 0 mm | - | 5 W/m² | - |
| 1788392031 | 31.67° C | 55% | 1016 hPa | 0 mm | - | 8 W/m² | - |
| 1788391729 | 32.22° C | 54% | 1016.3 hPa | 0 mm | - | 11 W/m² | - |
| 1788391425 | 32.22° C | 54% | 1016.3 hPa | 0 mm | - | 14 W/m² | - |
| 1788391124 | 32.78° C | 53% | 1016.4 hPa | 0 mm | - | 22 W/m² | - |
| 1788390819 | 33.33° C | 51% | 1016.4 hPa | 0 mm | - | 34 W/m² | - |
* Rain latest hour (hover to see other rain measurements)
** Current wind speed in m/s (hover to see current wind gust speed)